Regional Weather Roundup
Issued by NWS

Home | Current Version | Previous Version | Text Only | Print | Product List | Glossary On
Versions: 1 2 3 4 5 6 7 8 9 10 11 12 13 14 15 16 17 18 19 20 21 22 23 24 25 26 27 28 29 30 31 32 33 34 35 36 37 38 39 40 41 42 43 44 45 46 47 48 49 50
000
ASUS46 KPQR 210110
RWROR

OREGON REGIONAL WEATHER ROUNDUP
NATIONAL WEATHER SERVICE PORTLAND OR
600 PM PDT MON APR 20 2015

NOTE: "FAIR" INDICATES FEW OR NO CLOUDS BELOW 12,000 FEET WITH
NO SIGNIFICANT WEATHER AND/OR OBSTRUCTIONS TO VISIBILITY.

ORZ001>013-210200-
NORTHWEST OREGON


CITY           SKY/WX    TMP DP  RH WIND       PRES   REMARKS
ASTORIA        SUNNY     58  50  75 W12       29.89S
NEWPORT        CLOUDY    52  50  93 NW15      29.93S FOG
PORTLAND       MOSUNNY   78  43  28 N7        29.78F
VANCOUVER WA   SUNNY     80  36  20 NW8       29.78F
SCAPPOOSE      SUNNY     78  38  23 N12       29.78S
HILLSBORO      SUNNY     78  49  35 NE8       29.79S
AURORA         SUNNY     79  42  26 CALM      29.80F
MCMINNVILLE    SUNNY     76  54  46 S6        29.80F
SALEM          SUNNY     78  48  34 NE3       29.79F
CORVALLIS      SUNNY     75  48  38 NW10      29.82S
EUGENE         SUNNY     73  56  54 NE6       29.81F
$$

ORZ021-028-210200-
SOUTHWEST OREGON


CITY           SKY/WX    TMP DP  RH WIND       PRES   REMARKS
NORTH BEND     CLOUDY    54  52  94 N15G22    29.91S
BROOKINGS      CLOUDY    51  51 100 S5        29.88S
ROSEBURG       SUNNY     80  45  28 N5        29.79F
SEXTON SUMMIT  SUNNY     66  40  38 VRB6      29.89S
MEDFORD        SUNNY     82  39  21 E5        29.76F
$$

ORZ014>016-041-210200-
COLUMBIA GORGE


CITY           SKY/WX    TMP DP  RH WIND       PRES   REMARKS
TROUTDALE      SUNNY     80  40  23 VRB3      29.77F
THE DALLES     SUNNY     82  28  14 CALM      29.75F
$$

ORZ029>031-041-044-049-050-061>064-502-503-505>511-210200-
EASTERN OREGON


CITY           SKY/WX    TMP DP  RH WIND       PRES   REMARKS
REDMOND        SUNNY     74  22  14 NE7       29.83F
BEND           SUNNY     72  21  15 N7        29.84F
PRINEVILLE     SUNNY     72  16  12 N8        29.85S
KLAMATH FALLS  SUNNY     73  18  12 N15       29.86S
LAKEVIEW       SUNNY     73  16  11 W12       29.88F
HERMISTON      SUNNY     78  34  20 VRB3      29.78F
PENDLETON      SUNNY     73  37  27 NW7       29.81S
JOHN DAY       SUNNY     70  32  24 W9        29.86S
MEACHAM        SUNNY     64  33  31 VRB3      29.89S
LA GRANDE      SUNNY     72  36  26 N5        29.82S
BAKER CITY     SUNNY     69  34  27 NW8       29.84F
BURNS          SUNNY     71  20  14 SE9       29.85F
ROME             N/A     75  15  10 VRB3      29.82F
ONTARIO        SUNNY     72  38  29 S3        29.82F
$$



USA.gov is the U.S. government's official web portal to all federal, state and local government web resources and services.